[[{"header":{"parameterUnit":"m.s-1","parameterCategory":1,"la1":30.2992,"la2":30.254,"lo1":-89.0895,"lo2":-89.0443,"dy":0.0025,"dx":0.0025,"nx":19,"ny":19,"refTime":"2026-04-23T03:00:00:Z","depth":0,"parameterNumber":2,"parameterNumberName":"U-component_of_WINDS"},"data":[0,0,0,-4.4038,-4.4041,-4.4195,-4.4196,-4.4383,-4.4385,0,0,0,0,0,0,0,0,0,0,0,-4.3987,-4.3988,-4.4037,-4.4041,-4.4195,-4.4196,-4.4383,-4.4385,0,0,0,0,0,0,0,0,0,0,0,-4.3987,-4.3988,-4.3989,-4.4042,-4.4195,-4.4196,-4.4382,-4.4269,0,0,0,0,0,0,0,0,0,0,-4.4121,-4.407,-4.3988,-4.3989,-4.4043,-4.4195,-4.4196,-4.4264,-4.4276,-4.4309,0,-4.4339,0,-4.4365,-4.4397,-4.4397,0,0,0,-4.4044,-4.406,-4.4106,-4.399,-4.4044,-4.4194,-4.4126,-4.4271,-4.4285,-4.4326,-4.4342,-4.4349,-4.4368,-4.4398,-4.4399,-4.4584,-4.4584,0,0,-4.4036,-4.4012,-4.4096,-4.4115,-4.4092,-4.4121,-4.4131,-4.4279,-4.4294,-4.4342,-4.4353,-4.4371,-4.4399,-4.44,-4.4583,-4.4584,0,0,0,-4.4009,-4.4005,-4.4048,-4.4107,-4.4135,-4.4126,-4.4137,-4.4288,-4.4304,-4.4355,-4.4373,-4.44,-4.4402,-4.4582,-4.4583,-4.4595,0,0,0,-4.4004,-4.399,-4.4045,-4.4031,-4.4133,-4.4214,-4.4142,-4.4294,-4.4311,-4.4372,-4.44,-4.4404,-4.4582,-4.4583,-4.4593,-4.4604,0,0,0,-4.3979,-4.3987,-4.4008,-4.403,-4.4095,-4.4212,-4.4237,-4.4298,-4.4322,-4.4397,-4.4405,-4.4581,-4.4583,-4.4592,-4.4601,-4.4645,0,0,0,-4.3944,-4.4015,-4.4008,-4.4095,-4.4094,-4.4219,-4.4236,-4.433,-4.4397,-4.4401,-4.4582,-4.4583,-4.4591,-4.4599,-4.4643,-4.4676,-4.4688,0,0,-4.402,-4.4024,-4.4077,-4.4075,-4.4195,-4.4198,-4.432,-4.4403,-4.4431,-4.4531,-4.4536,-4.4594,-4.4601,-4.4644,-4.4769,-4.4778,0,0,0,-4.4093,-4.4131,-4.4168,-4.4231,-4.4298,-4.4355,-4.4423,-4.4454,-4.454,-4.4478,-4.4624,-4.4628,-4.4655,-4.4671,-4.468,-4.4703,-4.4591,-4.4591,-4.459,-4.4164,-4.4199,-4.429,-4.4344,-4.4405,-4.4475,-4.4528,-4.4581,-4.4597,-4.4631,-4.4659,-4.4731,-4.475,-4.4756,-4.478,-4.4682,-4.4682,-4.4682,-4.4682,-4.4278,-4.4336,-4.4359,-4.4454,-4.4491,-4.4571,-4.4643,-4.4652,-4.4731,-4.4712,-4.4737,-4.471,-4.4765,-4.4788,-4.4684,-4.4683,-4.4683,-4.4683,-4.4683,-4.4326,-4.436,-4.4399,-4.4495,-4.4566,-4.4619,-4.4695,-4.4726,-4.4755,-4.478,-4.4813,-4.4813,-4.4815,-4.4794,-4.4795,-4.4795,-4.4795,-4.4795,-4.4796,-4.4359,-4.4403,-4.4463,-4.4543,-4.4588,-4.4652,-4.4726,-4.4772,-4.483,-4.4846,-4.4846,-4.4858,-4.4766,-4.474,-4.4799,-4.4799,-4.4798,-4.4798,-4.4798,-4.4456,-4.444,-4.4534,-4.458,-4.4676,-4.4744,-4.4785,-4.4875,-4.4917,-4.4954,-4.4962,-4.489,-4.4894,-4.4888,-4.4867,-4.4955,-4.4955,-4.4955,-4.4955,-4.4495,-4.4502,-4.4606,-4.4677,-4.4751,-4.4798,-4.4903,-4.4962,-4.5019,-4.5048,-4.5041,-4.5017,-4.5009,-4.5018,-4.5009,-4.499,-4.5107,-4.5107,-4.5108,-4.4556,-4.4572,-4.4655,-4.4713,-4.4792,-4.4858,-4.4958,-4.5038,-4.5101,-4.5114,-4.507,-4.5064,-4.5026,-4.5012,-4.502,-4.5005,-4.4971,0,0]},{"header":{"parameterUnit":"m.s-1","parameterCategory":1,"la1":30.2992,"la2":30.254,"lo1":-89.0895,"lo2":-89.0443,"dy":0.0025,"dx":0.0025,"nx":19,"ny":19,"refTime":"2026-04-23T03:00:00:Z","depth":0,"parameterNumber":3,"parameterNumberName":"V-component_of_WINDS"},"data":[0,0,0,4.4627,4.4627,4.4623,4.4623,4.4628,4.4628,0,0,0,0,0,0,0,0,0,0,0,4.4634,4.4635,4.4627,4.4627,4.4623,4.4623,4.4628,4.4628,0,0,0,0,0,0,0,0,0,0,0,4.4634,4.4635,4.4635,4.4627,4.4623,4.4623,4.4628,4.4627,0,0,0,0,0,0,0,0,0,0,4.4629,4.4643,4.4635,4.4635,4.4627,4.4623,4.4623,4.4627,4.4627,4.4634,0,4.4643,0,4.4636,4.4629,4.4629,0,0,0,4.4622,4.4643,4.4636,4.4635,4.4627,4.4623,4.4623,4.4627,4.4627,4.4635,4.4643,4.4643,4.4636,4.4629,4.4629,4.469,4.4691,0,0,4.4622,4.4637,4.4636,4.4636,4.4638,4.4623,4.4623,4.4627,4.4636,4.4643,4.4643,4.4636,4.4629,4.463,4.4689,4.469,0,0,0,4.4626,4.4637,4.463,4.4636,4.4635,4.4623,4.4623,4.4636,4.4633,4.4643,4.4636,4.4629,4.463,4.4689,4.469,4.473,0,0,0,4.4626,4.464,4.4631,4.464,4.4635,4.4636,4.4632,4.4632,4.4632,4.4636,4.4629,4.463,4.4688,4.4689,4.4728,4.4747,0,0,0,4.4632,4.464,4.4642,4.4641,4.4639,4.4635,4.4632,4.4632,4.4629,4.4629,4.463,4.4688,4.4689,4.4726,4.4743,4.4767,0,0,0,4.4644,4.4677,4.4643,4.4679,4.464,4.4661,4.4631,4.4646,4.4652,4.463,4.4688,4.469,4.4725,4.4741,4.4765,4.479,4.4802,0,0,4.4695,4.4684,4.4704,4.4673,4.4704,4.466,4.4697,4.4687,4.4673,4.4685,4.4687,4.4729,4.4743,4.4767,4.4865,4.4874,0,0,0,4.4725,4.474,4.4745,4.4751,4.4746,4.4742,4.4726,4.4722,4.4732,4.4683,4.4744,4.4752,4.4765,4.4776,4.4784,4.4795,4.4696,4.4695,4.4695,4.4818,4.4799,4.4831,4.4813,4.482,4.4803,4.4807,4.48,4.4778,4.4793,4.4796,4.4858,4.4871,4.4877,4.4889,4.4808,4.4808,4.4809,4.4809,4.489,4.4908,4.4881,4.4901,4.4882,4.4899,4.4886,4.487,4.4883,4.4854,4.4864,4.4833,4.4889,4.4897,4.4812,4.4811,4.4811,4.481,4.481,4.4948,4.4954,4.495,4.4959,4.4968,4.4949,4.4963,4.4945,4.4928,4.4939,4.494,4.4939,4.4936,4.4941,4.4941,4.4941,4.4941,4.4942,4.4942,4.5009,4.5004,4.5019,4.5018,4.5021,4.5022,4.5008,4.501,4.5007,4.4993,4.4993,4.497,4.4898,4.488,4.4945,4.4944,4.4944,4.4944,4.4943,4.5088,4.5068,4.5091,4.5094,4.5092,4.5103,4.508,4.5087,4.5086,4.5094,4.5069,4.5019,4.5007,4.5,4.4985,4.5073,4.5073,4.5073,4.5073,4.5137,4.513,4.515,4.5156,4.516,4.5143,4.517,4.516,4.5146,4.5144,4.5129,4.5108,4.5102,4.5093,4.5085,4.507,4.5178,4.5178,4.5178,4.5185,4.5177,4.5203,4.5191,4.5188,4.5187,4.5212,4.522,4.52,4.5182,4.5143,4.5139,4.5104,4.5094,4.5073,4.506,4.5033,0,0]}]]